Location: �couen
(49.0206°N, 2.3831°E)
Time: 22:00:02
(UTC+00:00)

ATLAS 3B R/B - Pass Details

Date: 16 October 2021
Orbit: 989 x 1206 km, 63.8° (Epoch: 25 November)

Event Time Altitude Azimuth Distance (km) Brightness Sun altitude
Rises 18:25:34 0° 226° (SW) 3,711 6.2 -15.0°
Reaches altitude 10° 18:28:07 10° 228° (SW) 2,780 5.5 -15.5°
Maximum altitude 18:34:39 74° 314° (NW) 1,080 2.8 -16.5°
Drops below altitude 10° 18:41:33 10° 40° (NE) 2,926 4.7 -17.7°
Enters shadow 18:42:52 - 41° (NE) 3,401 5.0 -17.9°
